Weather reports worldwide

Advertisment
Amsterdam Airport, Netherlands (6240): temperature & dewpoint: 09.08.2020 21:00:00 - 15.08.2020 21:00:00 (CEST)Amsterdam Airport, Netherlands (6240): temperature 5cm: 09.08.2020 21:00:00 - 15.08.2020 21:00:00 (CEST)Amsterdam Airport, Netherlands (6240): wind speed & gusts: 09.08.2020 21:00:00 - 15.08.2020 21:00:00 (CEST)Amsterdam Airport, Netherlands (6240): wind direction: 09.08.2020 21:00:00 - 15.08.2020 21:00:00 (CEST)Amsterdam Airport, Netherlands (6240): reduced air pressure: 09.08.2020 21:00:00 - 15.08.2020 21:00:00 (CEST)Amsterdam Airport, Netherlands (6240): visibility: 09.08.2020 21:00:00 - 15.08.2020 21:00:00 (CEST)Amsterdam Airport, Netherlands (6240): precipitation: 09.08.2020 21:00:00 - 15.08.2020 21:00:00 (CEST)
Date & Time tt [°C] td [°C] tt 5cm [°C] ff [km/h] ff [kn] fx [km/h] fx [kn] dd ppp [hPa] vv [km] rr [mm]
15.08.2020 21:00:00 22,4 19,7 21,5 11 6 22 12 NNW 1013,8 10 2,0
15.08.2020 20:00:00 25,4 18,0 23,8 11 6 18 10 N 1013,7 10 0,0
15.08.2020 19:00:00 25,3 17,7 25,8 15 8 22 12 NNW 1013,5 10 0,0
15.08.2020 18:00:00 25,6 18,0 25,5 15 8 22 12 NW 1013,7 10 0,0
15.08.2020 17:00:00 26,7 17,9 29,0 8 4 22 12 N 1013,8 10 0,0
15.08.2020 16:00:00 26,9 18,6 30,8 5 3 18 10 - 1014,3 10 0,0
15.08.2020 15:00:00 25,3 18,6 28,2 9 5 18 10 W 1014,8 10 0,0
15.08.2020 14:00:00 26,1 18,8 30,5 8 4 18 10 WNW 1015,1 10 0,0
15.08.2020 13:00:00 24,9 18,9 27,6 8 4 14 8 W 1015,1 9 0,0
15.08.2020 12:00:00 22,8 18,4 25,4 11 6 18 10 NNW 1015,2 8 0,0
15.08.2020 11:00:00 21,9 18,4 24,0 8 4 14 8 WNW 1015,1 7 0,0
15.08.2020 10:00:00 21,7 18,7 22,8 9 5 18 10 W 1015,0 6 0,0
15.08.2020 09:00:00 20,7 18,0 21,1 13 7 18 10 SW 1014,8 3,8 0,0
15.08.2020 08:00:00 20,1 18,3 19,9 13 7 18 10 SW 1014,4 3,4 0,0
15.08.2020 07:00:00 19,9 18,4 19,7 5 3 14 8 WSW 1014,2 3,0 0,0
15.08.2020 06:00:00 19,8 18,5 19,6 8 4 14 8 W 1013,8 3,0 0,0
15.08.2020 05:00:00 19,8 18,5 19,6 11 6 18 10 WSW 1013,8 3,5 0,0
15.08.2020 04:00:00 19,6 18,5 19,6 8 4 18 10 W 1013,8 3,5 0,0
15.08.2020 03:00:00 20,0 18,8 19,9 9 5 18 10 W 1013,9 4,0 0,0
15.08.2020 02:00:00 20,4 19,1 20,2 9 5 14 8 W 1014,2 3,5 0,0
15.08.2020 01:00:00 20,5 19,4 20,3 13 7 18 10 W 1014,1 2,8 0,0
15.08.2020 00:00:00 20,5 19,5 20,2 9 5 14 8 W 1014,0 2,5 0,0
14.08.2020 23:00:00 20,9 19,7 20,3 9 5 14 8 WSW 1013,6 5 0,0
14.08.2020 22:00:00 20,7 19,6 20,3 8 4 14 8 NW 1013,4 4,0 0,0
14.08.2020 21:00:00 21,1 19,8 21,1 11 6 18 10 WNW 1013,1 5 0,0
14.08.2020 20:00:00 21,5 19,5 21,7 13 7 22 12 NW 1013,0 4,0 0,0
14.08.2020 19:00:00 22,1 19,7 23,5 18 10 25 14 W 1012,6 6 0,0
14.08.2020 18:00:00 24,2 20,1 26,3 24 13 32 18 W 1012,6 5 0,0
14.08.2020 17:00:00 24,7 20,2 26,2 22 12 32 18 W 1011,6 7 0,0
14.08.2020 16:00:00 27,7 19,2 27,7 5 3 18 10 - 1011,5 10 0,0
14.08.2020 15:00:00 27,2 19,8 26,7 13 7 18 10 NNW 1011,7 10 0,0
14.08.2020 14:00:00 25,8 19,4 25,2 11 6 18 10 N 1012,0 10 0,0
14.08.2020 13:00:00 25,3 20,2 24,9 15 8 29 16 N 1012,1 10 0,0
14.08.2020 12:00:00 25,4 19,7 28,0 9 5 29 16 W 1012,1 10 0,0
14.08.2020 11:00:00 25,2 18,9 25,7 5 3 22 12 S 1012,4 9 0,0
14.08.2020 10:00:00 23,9 19,6 22,6 21 11 29 16 S 1011,5 6 0,0
14.08.2020 09:00:00 22,7 20,2 22,6 16 9 22 12 S 1011,4 3,6 0,0
14.08.2020 08:00:00 21,6 20,3 19,8 5 3 11 6 SSE 1011,7 2,8 0,0
14.08.2020 07:00:00 20,5 18,3 18,8 8 4 18 10 ESE 1011,7 10 0,0
14.08.2020 06:00:00 20,9 18,9 19,4 9 5 18 10 E 1011,7 2,6 0,0
14.08.2020 05:00:00 21,5 20,3 20,0 8 4 25 14 E 1011,8 3,1 0,0
14.08.2020 04:00:00 21,3 20,1 19,6 4 2 14 8 - 1011,0 3,5 0,0
14.08.2020 03:00:00 21,7 19,8 20,4 9 5 22 12 SW 1011,2 4,0 0,0
14.08.2020 02:00:00 22,6 19,8 21,1 11 6 22 12 SW 1011,6 5 0,3
14.08.2020 01:00:00 22,9 20,6 22,2 11 6 22 12 SSW 1011,5 5 0,3
14.08.2020 00:00:00 24,2 20,2 22,2 13 7 22 12 WSW 1011,6 10 0,0
13.08.2020 23:00:00 24,9 19,9 22,1 11 6 14 8 SW 1011,3 10 0,0
13.08.2020 22:00:00 25,4 20,6 22,2 5 3 11 6 SE 1010,8 10 0,0
13.08.2020 21:00:00 26,7 19,5 23,4 4 2 7 4 ESE 1010,5 10 0,0
13.08.2020 20:00:00 27,0 19,9 25,0 5 3 11 6 E 1010,4 10 0,0
13.08.2020 19:00:00 27,7 20,4 26,0 9 5 14 8 E 1010,4 10 0,0
13.08.2020 18:00:00 29,3 19,1 28,1 8 4 14 8 E 1010,3 10 0,0
13.08.2020 17:00:00 30,9 17,8 32,4 5 3 14 8 - 1010,4 10 0,0
13.08.2020 16:00:00 31,1 18,6 33,8 11 6 18 10 ESE 1010,9 10 0,0
13.08.2020 15:00:00 30,0 19,7 31,2 11 6 22 12 SE 1011,0 10 0,0
13.08.2020 14:00:00 29,7 19,3 34,1 11 6 22 12 E 1011,2 10 0,0
13.08.2020 13:00:00 29,4 18,6 32,8 13 7 22 12 ENE 1011,3 10 0,0
13.08.2020 12:00:00 29,2 19,7 31,3 8 4 14 8 E 1011,5 10 0,0
13.08.2020 11:00:00 27,4 18,0 29,3 8 4 11 6 ENE 1011,2 10 0,0
13.08.2020 10:00:00 26,6 17,8 26,6 4 2 11 6 - 1011,3 10 0,0
13.08.2020 09:00:00 24,2 17,6 21,7 5 3 14 8 SSE 1011,5 10 0,0
13.08.2020 08:00:00 22,6 17,7 19,4 8 4 14 8 ESE 1011,7 10 0,0
13.08.2020 07:00:00 21,0 17,2 16,7 9 5 14 8 ESE 1011,6 10 0,0
13.08.2020 06:00:00 20,3 17,0 16,3 9 5 11 6 E 1011,1 10 0,0
13.08.2020 05:00:00 20,0 17,1 16,6 9 5 14 8 ENE 1011,4 10 0,0
13.08.2020 04:00:00 21,4 16,7 17,2 8 4 11 6 ENE 1011,8 10 0,0
13.08.2020 03:00:00 21,8 17,2 17,5 9 5 14 8 NE 1011,6 10 0,0
13.08.2020 02:00:00 23,3 17,1 18,4 5 3 14 8 ENE 1011,8 10 0,0
13.08.2020 01:00:00 23,5 17,2 19,7 11 6 14 8 E 1012,0 10 0,0
13.08.2020 00:00:00 24,6 18,1 20,5 13 7 18 10 E 1012,4 10 0,0
12.08.2020 23:00:00 24,4 19,5 21,0 9 5 14 8 NE 1012,8 10 0,0
12.08.2020 22:00:00 26,3 19,1 22,8 11 6 22 12 ENE 1012,6 10 0,0
12.08.2020 21:00:00 27,4 18,3 23,6 11 6 25 14 NE 1012,1 10 0,0
12.08.2020 20:00:00 29,4 17,1 26,4 16 9 25 14 NNE 1011,7 10 0,0
12.08.2020 19:00:00 30,5 17,9 28,7 11 6 22 12 ENE 1012,2 10 0,0
12.08.2020 18:00:00 31,1 18,6 30,9 11 6 18 10 NE 1012,8 10 0,0
12.08.2020 17:00:00 31,1 18,0 32,0 11 6 22 12 ENE 1013,2 10 0,0
12.08.2020 16:00:00 31,2 18,7 32,3 15 8 25 14 NE 1013,6 10 0,0
12.08.2020 15:00:00 31,2 18,4 33,5 11 6 22 12 ENE 1014,0 10 0,0
12.08.2020 14:00:00 30,5 18,3 34,5 5 3 22 12 - 1014,2 10 0,0
12.08.2020 13:00:00 30,4 17,7 33,3 13 7 25 14 SSE 1014,4 10 0,0
12.08.2020 12:00:00 29,9 17,3 32,0 9 5 18 10 SE 1014,4 10 0,0
12.08.2020 11:00:00 28,4 18,6 29,8 5 3 14 8 E 1014,7 10 0,0
12.08.2020 10:00:00 24,8 18,7 24,1 8 4 14 8 SE 1014,7 10 0,0
12.08.2020 09:00:00 25,0 19,0 23,0 8 4 14 8 E 1014,7 10 0,0
12.08.2020 08:00:00 23,4 19,4 20,7 2 1 7 4 NE 1014,7 10 0,0
12.08.2020 07:00:00 22,8 18,9 19,4 9 5 14 8 E 1014,7 10 0,0
12.08.2020 06:00:00 21,5 18,0 18,1 5 3 11 6 E 1014,6 10 0,0
12.08.2020 05:00:00 21,5 18,5 19,0 5 3 11 6 ENE 1014,0 10 0,0
12.08.2020 04:00:00 22,9 17,2 19,5 8 4 18 10 E 1013,8 10 0,0
12.08.2020 03:00:00 24,2 18,4 21,6 16 9 29 16 ESE 1014,6 10 0,0
12.08.2020 02:00:00 24,1 18,1 20,4 16 9 22 12 ESE 1014,9 10 0,0
12.08.2020 01:00:00 23,7 18,4 20,5 5 3 11 6 ESE 1015,2 10 0,0
12.08.2020 00:00:00 23,9 18,7 21,1 5 3 14 8 NE 1014,9 10 0,0
11.08.2020 23:00:00 24,9 18,0 21,3 11 6 22 12 S 1015,0 10 0,0
11.08.2020 22:00:00 24,8 17,7 22,0 8 4 18 10 NE 1014,4 10 0,0
11.08.2020 21:00:00 26,0 16,9 23,8 5 3 18 10 E 1013,9 10 0,0
11.08.2020 20:00:00 27,7 16,8 25,8 18 10 32 18 ESE 1013,9 10 0,0
11.08.2020 19:00:00 30,7 19,2 28,5 15 8 25 14 ENE 1013,5 10 0,0
11.08.2020 18:00:00 31,1 18,7 29,4 13 7 18 10 NE 1013,5 10 0,0
11.08.2020 17:00:00 32,3 19,3 31,2 5 3 18 10 ENE 1014,0 10 0,0
11.08.2020 16:00:00 32,6 18,7 32,7 13 7 18 10 ENE 1014,3 10 0,0
11.08.2020 15:00:00 31,4 19,2 31,9 13 7 22 12 ENE 1014,6 10 0,0
11.08.2020 14:00:00 30,3 19,9 31,3 11 6 18 10 ENE 1015,0 10 0,0
11.08.2020 13:00:00 29,4 19,8 31,6 13 7 22 12 ENE 1015,1 10 0,0
11.08.2020 12:00:00 27,4 19,1 29,0 13 7 22 12 ENE 1015,2 10 0,0
11.08.2020 11:00:00 27,0 18,7 28,2 16 9 22 12 ENE 1015,1 10 0,0
11.08.2020 10:00:00 26,0 17,8 25,8 13 7 22 12 ENE 1015,1 10 0,0
11.08.2020 09:00:00 24,8 18,0 22,9 15 8 25 14 E 1015,3 10 0,0
11.08.2020 08:00:00 22,9 17,2 20,4 16 9 25 14 ENE 1015,2 10 0,0
11.08.2020 07:00:00 22,2 17,0 18,7 15 8 22 12 ENE 1014,9 10 0,0
11.08.2020 06:00:00 21,6 16,9 18,2 13 7 25 14 ENE 1014,7 10 0,0
11.08.2020 05:00:00 22,3 16,8 17,9 15 8 22 12 ENE 1014,7 10 0,0
11.08.2020 04:00:00 21,9 16,8 17,9 15 8 22 12 ENE 1014,8 10 0,0
11.08.2020 03:00:00 22,2 16,9 17,6 13 7 18 10 ENE 1015,1 10 0,0
11.08.2020 02:00:00 22,4 16,5 18,9 13 7 22 12 E 1015,4 10 0,0
11.08.2020 01:00:00 23,2 17,9 19,5 13 7 18 10 ENE 1015,3 10 0,0
11.08.2020 00:00:00 24,9 19,4 20,9 13 7 18 10 NE 1015,1 10 0,0
10.08.2020 23:00:00 25,6 19,5 19,8 9 5 14 8 NE 1015,2 10 0,0
10.08.2020 22:00:00 25,5 17,6 20,3 11 6 14 8 NE 1014,7 10 0,0
10.08.2020 21:00:00 26,7 17,5 22,6 11 6 18 10 ENE 1014,2 10 0,0
10.08.2020 20:00:00 29,3 16,8 25,9 13 7 25 14 ENE 1014,0 10 0,0
10.08.2020 19:00:00 31,1 17,2 28,9 18 10 25 14 NE 1013,6 10 0,0
10.08.2020 18:00:00 31,8 16,6 30,9 16 9 25 14 ENE 1014,0 10 0,0
10.08.2020 17:00:00 31,0 18,3 30,1 16 9 29 16 ENE 1014,3 10 0,0
10.08.2020 16:00:00 31,6 18,3 31,8 21 11 32 18 NE 1014,4 10 0,0
10.08.2020 15:00:00 31,1 18,5 31,8 16 9 25 14 NE 1014,9 10 0,0
10.08.2020 14:00:00 29,9 19,5 28,1 15 8 25 14 ENE 1015,2 10 0,0
10.08.2020 13:00:00 28,8 18,2 28,1 18 10 25 14 ENE 1015,1 10 0,0
10.08.2020 12:00:00 28,6 18,2 29,7 18 10 25 14 ENE 1015,3 10 0,0
10.08.2020 11:00:00 27,4 18,0 27,8 22 12 29 16 ENE 1015,3 10 0,0
10.08.2020 10:00:00 26,5 17,7 26,0 16 9 22 12 ENE 1015,3 10 0,0
10.08.2020 09:00:00 24,5 17,6 22,5 13 7 18 10 ENE 1015,3 10 0,0
10.08.2020 08:00:00 22,8 17,5 19,4 13 7 18 10 ENE 1015,3 10 0,0
10.08.2020 07:00:00 20,8 16,8 17,4 13 7 18 10 E 1015,4 10 0,0
10.08.2020 06:00:00 20,0 16,7 15,1 11 6 18 10 ENE 1015,3 10 0,0
10.08.2020 05:00:00 19,7 16,3 15,8 8 4 14 8 E 1015,6 10 0,0
10.08.2020 04:00:00 20,2 16,8 16,6 11 6 14 8 ENE 1015,8 10 0,0
10.08.2020 03:00:00 21,2 16,7 18,4 13 7 25 14 ENE 1015,9 10 0,0
10.08.2020 02:00:00 22,4 18,6 19,8 16 9 25 14 ENE 1015,7 10 0,0
10.08.2020 01:00:00 23,0 18,4 20,4 15 8 29 16 NE 1015,8 10 0,0
10.08.2020 00:00:00 23,3 18,6 20,8 18 10 25 14 NE 1016,0 10 0,0
09.08.2020 23:00:00 24,4 18,3 21,3 16 9 29 16 NE 1016,0 10 0,0
09.08.2020 22:00:00 25,4 17,9 22,2 18 10 29 16 NE 1016,2 10 0,0
09.08.2020 21:00:00 26,8 16,7 23,7 21 11 36 19 NE 1015,9 10 0,0

tt = temperature
td = dewpoint
tt 5cm = temperature 5cm
ff = wind speed
fx = gusts
dd = wind direction
ppp = reduced air pressure
vv = visibility
rr = precipitation

Next stations